Погода в Пиньшине

Россия / Вологодская область     60°17′01″N   38°16′59″E
темп.,
°C
ветер,
м/с
пор.,
м/с
влажн.,
%
обл.,
%
осадки,
мм/ч
давл.,
гПа
погр.,
м
13 апреля, вт
вт1300:00+7ююв41489100 0.0 1028570
03:00+6ююв41292100 0.0 1027449
06:00+5ююв31097100 0.0 1025319
09:00+8ююв4892100 0.0 1024302
12:00+10ю3688100 0.1 1023442
15:00+12ю3785100 0.1 1022526
18:00+10ююз1395100 0.0 102194
21:00+7ююв1199100 0.0 102111
14 апреля, ср
ср1400:00+7ююв2499100 0.3 102067
03:00+7ююв279752 0.6 1019137
06:00+6ю3109361 0.0 1018196
09:00+11ю4127768 0.0 1017388
12:00+12ююз3107993 0.0 1017586
15:00+14юз487490 0.2 1016864
18:00+8ссз3793100 0.4 1018295
21:00+6ссз3793100 1.0 1020447
15 апреля, чт
чт1500:00+5ссв3888100 0.1 1021568
03:00+4ссв3889100 0.1 1022485
06:00+4ссв3890100 0.0 1023461
09:00+5ссв477698 0.0 1025663
12:00+6св5661100 0.0 1026987
15:00+7св565190 0.0 10261139
18:00+6св475798 0.0 1027920
21:00+2ссв397779 0.0 1028207
16 апреля, пт
пт1600:00+1св3107840 0.0 1029237
03:00−1св38815 0.0 1030183
06:00−1всв39775 0.0 1031250
09:00+5всв46465 0.0 1031689
12:00+8всв35385 0.0 10311151
15:00+9св453513 0.0 10301376
18:00+8св364546 0.0 1030418
21:00+3св256894 0.0 103284
17 апреля, сб
сб1700:00+1св257293 0.0 103289
03:000св23795 0.0 103352
06:000св25830 0.0 103493
09:00+7св24615 0.0 1034461
12:00+10св35485 0.0 10331272
15:00+11ссв35408 0.0 10331550
18:00+10св36505 0.0 1032808
21:00+5ссв26725 0.0 1033101